When you browse on this site, cookies collect data to enhance your experience and personalize the content and advertising you see.
Visit our Privacy Policy to learn more. By continuing to use the site, you agree to this use of cookies and data.
  • în România
  • Lista ţărilor
  • Pe 7 zile
  • Temperatura apei
  • Hartă satelitară
  • Meteo pe hartă
  • Widget-uri
  • user-avatar
    Intrare

    Meteo pe oră la Rino

    Astăzi, 23 Februarie, Sâmbătă

    Timp Temperatura Precipitaţii Vânt Presiune Umiditate
    00:00 -4°C° 0 mm 1 m/s 644 mmHg 80%
    01:00 -7°C° 0 mm 2 m/s 644 mmHg 80%
    02:00 -7°C° 0 mm 2 m/s 644 mmHg 78%
    03:00 -7°C° 0 mm 2 m/s 644 mmHg 75%
    04:00 -7°C° 0 mm 2 m/s 645 mmHg 73%
    05:00 -7°C° 0 mm 2 m/s 645 mmHg 70%
    06:00 -7°C° 0 mm 2 m/s 645 mmHg 66%
    07:00 -7°C° 0 mm 2 m/s 645 mmHg 63%
    08:00 -4°C° 0 mm 2 m/s 646 mmHg 63%
    09:00 -2°C° 0 mm 2 m/s 646 mmHg 63%
    10:00 +2°C° 0 mm 2 m/s 647 mmHg 63%
    11:00 +2°C° 0 mm 2 m/s 647 mmHg 69%
    12:00 +3°C° 0 mm 2 m/s 647 mmHg 74%
    13:00 +4°C° 0 mm 2 m/s 647 mmHg 79%
    14:00 +4°C° 0 mm 2 m/s 646 mmHg 78%
    15:00 +4°C° 0 mm 2 m/s 646 mmHg 77%
    16:00 +4°C° 0 mm 2 m/s 646 mmHg 76%
    17:00 +2°C° 0 mm 2 m/s 646 mmHg 79%
    18:00 +1°C° 0 mm 2 m/s 646 mmHg 81%
    19:00 -2°C° 0 mm 2 m/s 645 mmHg 83%
    20:00 -2°C° 0 mm 2 m/s 645 mmHg 83%
    21:00 -2°C° 0 mm 2 m/s 646 mmHg 83%
    22:00 -2°C° 0 mm 2 m/s 646 mmHg 83%
    23:00 -2°C° 0 mm 2 m/s 646 mmHg 83%

    Mâine, 24 Februarie, Duminică

    Timp Temperatura Precipitaţii Vânt Presiune Umiditate
    00:00 -2°C° 0 mm 2 m/s 646 mmHg 83%
    01:00 -2°C° 0 mm 2 m/s 646 mmHg 82%
    02:00 -1°C° 0 mm 2 m/s 646 mmHg 83%
    03:00 -1°C° 0 mm 2 m/s 645 mmHg 83%
    04:00 -1°C° 0 mm 3 m/s 645 mmHg 83%
    05:00 -2°C° 0 mm 3 m/s 645 mmHg 82%
    06:00 -2°C° 0 mm 3 m/s 645 mmHg 82%
    07:00 -2°C° 0 mm 3 m/s 644 mmHg 81%
    08:00 -1°C° 0 mm 3 m/s 645 mmHg 78%
    09:00 0°C° 0 mm 4 m/s 645 mmHg 75%
    10:00 +3°C° 0 mm 4 m/s 645 mmHg 72%
    11:00 +4°C° 0 mm 4 m/s 645 mmHg 71%
    12:00 +3°C° 0 mm 5 m/s 644 mmHg 70%
    13:00 +5°C° 0 mm 5 m/s 644 mmHg 69%
    14:00 +5°C° 0 mm 5 m/s 643 mmHg 69%
    15:00 +3°C° 0 mm 5 m/s 643 mmHg 68%
    16:00 +4°C° 0 mm 4 m/s 642 mmHg 68%
    17:00 +3°C° 0 mm 4 m/s 642 mmHg 71%
    18:00 +1°C° 0 mm 3 m/s 642 mmHg 74%
    19:00 0°C° 0 mm 3 m/s 642 mmHg 77%
    20:00 0°C° 0 mm 3 m/s 642 mmHg 76%
    21:00 0°C° 0 mm 3 m/s 642 mmHg 76%
    22:00 -1°C° 0 mm 3 m/s 642 mmHg 75%
    23:00 0°C° 0 mm 3 m/s 642 mmHg 74%

    Poimâine, 25 Februarie, Luni

    Timp Temperatura Precipitaţii Vânt Presiune Umiditate
    00:00 0°C° 0 mm 3 m/s 642 mmHg 74%
    01:00 0°C° 0 mm 3 m/s 642 mmHg 73%
    02:00 -1°C° 0 mm 4 m/s 641 mmHg 73%
    03:00 -1°C° 0 mm 4 m/s 641 mmHg 73%
    04:00 -2°C° 0 mm 4 m/s 640 mmHg 72%
    05:00 -1°C° 0 mm 4 m/s 640 mmHg 72%
    06:00 -1°C° 0 mm 4 m/s 640 mmHg 72%
    07:00 -1°C° 0 mm 5 m/s 640 mmHg 72%
    08:00 0°C° 0 mm 5 m/s 640 mmHg 72%
    09:00 +1°C° 0 mm 5 m/s 640 mmHg 73%
    10:00 +3°C° 0 mm 6 m/s 640 mmHg 74%
    11:00 +3°C° 0 mm 7 m/s 640 mmHg 71%
    12:00 +3°C° 0 mm 9 m/s 640 mmHg 69%
    13:00 +3°C° 0 mm 10 m/s 640 mmHg 67%
    14:00 +3°C° 0 mm 10 m/s 639 mmHg 67%
    15:00 +3°C° 0 mm 10 m/s 639 mmHg 66%
    16:00 +3°C° 0 mm 10 m/s 638 mmHg 66%
    17:00 +2°C° 0.1 mm 10 m/s 638 mmHg 69%
    18:00 +2°C° 0.1 mm 10 m/s 638 mmHg 71%
    19:00 +1°C° 0.1 mm 9 m/s 638 mmHg 74%
    20:00 +1°C° 0.2 mm 8 m/s 638 mmHg 75%
    21:00 +2°C° 0.2 mm 7 m/s 638 mmHg 76%
    22:00 +2°C° 0.2 mm 6 m/s 638 mmHg 77%
    23:00 +2°C° 0.4 mm 6 m/s 638 mmHg 78%

    26 Februarie, Marţi

    Timp Temperatura Precipitaţii Vânt Presiune Umiditate
    00:00 +2°C° 0.4 mm 6 m/s 638 mmHg 79%
    01:00 +2°C° 0.4 mm 6 m/s 638 mmHg 80%
    02:00 +1°C° 0.2 mm 6 m/s 638 mmHg 79%
    03:00 +1°C° 0.2 mm 6 m/s 638 mmHg 78%
    04:00 +1°C° 0.2 mm 6 m/s 638 mmHg 77%
    05:00 +1°C° 0.1 mm 6 m/s 638 mmHg 78%
    06:00 +1°C° 0.1 mm 5 m/s 638 mmHg 78%
    07:00 +1°C° 0.1 mm 5 m/s 639 mmHg 78%
    08:00 +2°C° 0.3 mm 5 m/s 639 mmHg 77%
    09:00 +2°C° 0.3 mm 6 m/s 639 mmHg 77%
    10:00 +3°C° 0.3 mm 7 m/s 640 mmHg 76%
    11:00 +4°C° 0.2 mm 7 m/s 640 mmHg 72%
    12:00 +4°C° 0.2 mm 8 m/s 640 mmHg 69%
    13:00 +5°C° 0.2 mm 9 m/s 640 mmHg 65%
    14:00 +5°C° 0 mm 9 m/s 640 mmHg 66%
    15:00 +5°C° 0 mm 8 m/s 640 mmHg 66%
    16:00 +5°C° 0 mm 8 m/s 639 mmHg 67%
    17:00 +4°C° 0 mm 7 m/s 639 mmHg 70%
    18:00 +3°C° 0 mm 6 m/s 639 mmHg 74%
    19:00 +2°C° 0 mm 5 m/s 639 mmHg 77%
    20:00 +2°C° 0.1 mm 5 m/s 639 mmHg 79%
    21:00 +3°C° 0.1 mm 4 m/s 639 mmHg 80%
    22:00 +3°C° 0.1 mm 4 m/s 639 mmHg 82%
    23:00 +3°C° 0.8 mm 3 m/s 639 mmHg 83%

    27 Februarie, Miercuri

    Timp Temperatura Precipitaţii Vânt Presiune Umiditate
    00:00 +4°C° 0.8 mm 3 m/s 638 mmHg 84%
    01:00 +5°C° 0.8 mm 2 m/s 638 mmHg 86%
    02:00 +4°C° 1.8 mm 3 m/s 638 mmHg 86%
    03:00 +4°C° 1.8 mm 3 m/s 638 mmHg 86%
    04:00 +4°C° 1.8 mm 4 m/s 638 mmHg 86%
    05:00 +4°C° 1.6 mm 3 m/s 638 mmHg 87%
    06:00 +3°C° 1.6 mm 3 m/s 638 mmHg 88%
    07:00 +3°C° 1.6 mm 3 m/s 639 mmHg 89%
    08:00 +3°C° 0.2 mm 5 m/s 639 mmHg 84%
    09:00 +4°C° 0.2 mm 8 m/s 640 mmHg 79%
    10:00 +5°C° 0.2 mm 10 m/s 640 mmHg 75%
    11:00 +5°C° 0 mm 10 m/s 641 mmHg 73%
    12:00 +6°C° 0 mm 11 m/s 641 mmHg 72%
    13:00 +6°C° 0 mm 11 m/s 641 mmHg 70%
    14:00 +6°C° 0 mm 11 m/s 641 mmHg 70%
    15:00 +6°C° 0 mm 11 m/s 641 mmHg 70%
    16:00 +6°C° 0 mm 11 m/s 641 mmHg 70%
    17:00 +5°C° 0 mm 9 m/s 641 mmHg 72%
    18:00 +4°C° 0 mm 8 m/s 641 mmHg 74%
    19:00 +4°C° 0 mm 6 m/s 641 mmHg 76%
    20:00 +3°C° 0 mm 6 m/s 641 mmHg 77%
    21:00 +3°C° 0 mm 5 m/s 641 mmHg 79%
    22:00 +3°C° 0 mm 5 m/s 641 mmHg 80%
    23:00 +3°C° 0.1 mm 5 m/s 641 mmHg 80%

    28 Februarie, Joi

    Timp Temperatura Precipitaţii Vânt Presiune Umiditate
    00:00 +3°C° 0.1 mm 5 m/s 641 mmHg 81%
    01:00 +3°C° 0.1 mm 6 m/s 641 mmHg 81%
    02:00 +3°C° 0.1 mm 6 m/s 641 mmHg 80%
    03:00 +3°C° 0.1 mm 7 m/s 641 mmHg 80%
    04:00 +3°C° 0.1 mm 7 m/s 641 mmHg 80%
    05:00 +2°C° 0.1 mm 7 m/s 641 mmHg 80%
    06:00 +2°C° 0.1 mm 7 m/s 641 mmHg 80%
    07:00 +2°C° 0.1 mm 6 m/s 641 mmHg 80%
    08:00 +2°C° 0.1 mm 8 m/s 642 mmHg 75%
    09:00 +3°C° 0.1 mm 9 m/s 642 mmHg 71%
    10:00 +3°C° 0.1 mm 11 m/s 643 mmHg 66%
    11:00 +3°C° 0 mm 12 m/s 643 mmHg 65%
    12:00 +3°C° 0 mm 12 m/s 643 mmHg 64%
    13:00 +4°C° 0 mm 13 m/s 643 mmHg 62%
    14:00 +3°C° 0 mm 12 m/s 643 mmHg 62%
    15:00 +2°C° 0 mm 11 m/s 642 mmHg 63%
    16:00 +2°C° 0 mm 11 m/s 642 mmHg 63%
    17:00 +1°C° 0 mm 8 m/s 642 mmHg 67%
    18:00 +1°C° 0 mm 6 m/s 642 mmHg 71%
    19:00 -1°C° 0 mm 4 m/s 642 mmHg 75%
    20:00 -1°C° 0 mm 4 m/s 643 mmHg 75%
    21:00 0°C° 0 mm 3 m/s 643 mmHg 76%
    22:00 0°C° 0 mm 3 m/s 644 mmHg 76%
    23:00 +1°C° 0 mm 2 m/s 644 mmHg 77%
    Arată mai mult